Change the Weather History Date:

Monday, October 29, 2012

  Actual Average (KBFD) Record (KBFD)
Temperature  
Mean Temperature 42 °F 43 °F  
Max Temperature 48 °F 52 °F 72 °F (1999)
Min Temperature 39 °F 33 °F 10 °F (1965)
Degree Days  
Heating Degree Days 22 18  
Month to date heating degree days 400  
Since 1 July heating degree days 817  
Cooling Degree Days 0 0  
Month to date cooling degree days 0  
Year to date cooling degree days 192  
Moisture  
Dew Point 39 °F    
Average Humidity 89    
Maximum Humidity 93    
Minimum Humidity 87    
Precipitation  
Precipitation 1.55 in 0.10 in 1.63 in (1973)
Month to date precipitation 3.21  
Year to date precipitation 37.08  
Sea Level Pressure  
Sea Level Pressure 29.58 in    
Wind  
Wind Speed 10 mph (North)    
Max Wind Speed 30 mph    
Max Gust Speed 47 mph    
Visibility 3 miles    
Events Fog , Rain    
T = Trace of Precipitation, MM = Missing Value Source: NWS Daily Summary

Daily Weather History Graph

Daily Weather History Graph

Search for Another Location

Airport or City:

Trip Planner

Search our weather history database for the weather conditions in past years. The results will help you decide how hot, cold, wet, or windy it might be!

Date:

Astronomy

Oct. 29, 2012 Rise Set
Actual Time 7:41 AM EDT 6:08 PM EDT
Civil Twilight 7:12 AM EDT 6:37 PM EDT
Nautical Twilight 6:39 AM EDT 7:10 PM EDT
Astronomical Twilight 6:07 AM EDT 7:43 PM EDT
Moon 5:59 PM EDT (10/29) 7:30 AM EDT (10/29)
Length of Visible Light 11h 25m
Length of Day
10h 27m
Full, 100% of the Moon is Illuminated
Oct 29
Full
Oct 29
Full
Nov 6
Last Quarter
Nov 13
New
Nov 20
First Quarter

Hourly Weather History & Observations

Time (EDT) Temp. Windchill Dew Point Humidity Pressure Visibility Wind Dir Wind Speed Gust Speed Precip Events Conditions
12:47 AM 39.2 °F 34.2 °F 37.4 °F 93% 29.82 in 1.8 mi Variable 6.9 mph - 0.00 in Rain Light Rain
12:56 AM 39.9 °F 35.8 °F 37.9 °F 93% 29.86 in 0.8 mi North 5.8 mph - 0.00 in   Mist
1:56 AM 39.9 °F 33.9 °F 37.9 °F 93% 29.83 in 0.5 mi NNW 9.2 mph - 0.00 in Fog , Rain Light Rain
2:51 AM 41.0 °F 38.0 °F 39.2 °F 93% 29.79 in 0.2 mi North 4.6 mph - 0.01 in Fog , Rain Light Rain
2:56 AM 41.0 °F 37.1 °F 39.0 °F 93% 29.83 in 0.5 mi North 5.8 mph - 0.01 in Fog , Rain Light Rain
3:36 AM 41.0 °F 35.8 °F 39.2 °F 93% 29.77 in 1.0 mi NNW 8.1 mph - 0.01 in Rain Light Rain
3:43 AM 41.0 °F 37.1 °F 39.2 °F 93% 29.77 in 0.8 mi NNW 5.8 mph - 0.01 in Rain Light Rain
3:56 AM 41.0 °F 36.4 °F 39.0 °F 93% 29.80 in 0.5 mi North 6.9 mph - 0.01 in Fog Fog
4:56 AM 42.1 °F 37.7 °F 39.9 °F 92% 29.79 in 0.5 mi Variable 6.9 mph - N/A Fog Fog
5:38 AM 42.8 °F 37.5 °F 39.2 °F 87% 29.75 in 1.5 mi North 9.2 mph 19.6 mph N/A   Overcast
5:52 AM 42.8 °F 37.0 °F 39.2 °F 87% 29.75 in 1.8 mi NNW 10.4 mph 20.7 mph 0.00 in   Overcast
5:56 AM 42.1 °F 35.2 °F 39.9 °F 92% 29.78 in 1.0 mi North 12.7 mph 20.7 mph 0.00 in   Overcast
6:06 AM 42.8 °F 36.6 °F 39.2 °F 87% 29.74 in 0.8 mi North 11.5 mph 19.6 mph 0.00 in Rain Light Rain
6:52 AM 42.8 °F 37.0 °F 39.2 °F 87% 29.74 in 1.0 mi North 10.4 mph 20.7 mph 0.00 in Rain Light Rain
6:56 AM 42.1 °F 37.1 °F 39.9 °F 92% 29.77 in 0.8 mi North 8.1 mph 20.7 mph 0.00 in Rain Light Rain
8:45 AM 42.8 °F 38.0 °F 39.2 °F 87% 29.72 in 0.2 mi North 8.1 mph - 0.00 in Fog , Rain Light Rain
8:56 AM 42.1 °F 37.1 °F 39.9 °F 92% 29.76 in 0.2 mi North 8.1 mph - 0.00 in Fog , Rain Light Rain
9:10 AM 42.8 °F 36.2 °F 39.2 °F 87% 29.72 in 0.5 mi North 12.7 mph 20.7 mph 0.01 in Fog , Rain Light Rain
9:39 AM 42.8 °F 38.0 °F 39.2 °F 87% 29.71 in 1.5 mi NNW 8.1 mph - 0.05 in Rain Rain
9:46 AM 42.8 °F 37.5 °F 39.2 °F 87% 29.70 in 3.0 mi North 9.2 mph - 0.06 in Rain Rain
9:56 AM 42.1 °F 36.1 °F 39.9 °F 92% 29.73 in 5.0 mi North 10.4 mph 19.6 mph 0.07 in Rain Light Rain
10:56 AM 42.1 °F 40.2 °F 39.9 °F 92% 29.69 in 10.0 mi Variable 3.5 mph - 0.08 in Rain Light Rain
11:43 AM 42.8 °F 37.5 °F 39.2 °F 87% 29.64 in 10.0 mi North 9.2 mph 19.6 mph 0.01 in   Overcast
12:07 PM 42.8 °F 36.6 °F 39.2 °F 87% 29.61 in 4.0 mi North 11.5 mph 21.9 mph 0.00 in Rain Light Rain
12:17 PM 42.8 °F 40.1 °F 39.2 °F 87% 29.61 in 2.0 mi Variable 4.6 mph 21.9 mph 0.00 in Rain Light Rain
12:34 PM 42.8 °F 36.2 °F 39.2 °F 87% 29.60 in 1.2 mi North 12.7 mph 31.1 mph 0.00 in Rain Light Rain
12:45 PM 42.8 °F 36.2 °F 39.2 °F 87% 29.59 in 3.0 mi NNW 12.7 mph 26.5 mph 0.00 in Rain Light Rain
12:56 PM 42.1 °F 36.1 °F 39.9 °F 92% 29.62 in 5.0 mi North 10.4 mph 26.5 mph 0.00 in Rain Light Rain
1:13 PM 42.8 °F 37.0 °F 39.2 °F 87% 29.57 in 2.5 mi North 10.4 mph 28.8 mph 0.01 in Rain Light Rain
1:27 PM 42.8 °F 34.5 °F 39.2 °F 87% 29.53 in 4.0 mi NNW 18.4 mph 31.1 mph 0.02 in Rain Light Rain
1:56 PM 43.0 °F 34.8 °F 39.9 °F 89% 29.55 in 5.0 mi NNW 18.4 mph 32.2 mph 0.04 in Rain Light Rain
2:49 PM 42.8 °F 35.1 °F 39.2 °F 87% 29.48 in 3.0 mi North 16.1 mph 38.0 mph 0.07 in Rain Rain
2:56 PM 43.0 °F 34.5 °F 39.9 °F 89% 29.50 in 4.0 mi North 19.6 mph 34.5 mph 0.08 in Rain Rain
3:22 PM 42.8 °F 34.3 °F 39.2 °F 87% 29.44 in 6.0 mi North 19.6 mph 35.7 mph 0.05 in Rain Light Rain
3:56 PM 42.1 °F 34.5 °F 39.0 °F 89% 29.46 in 5.0 mi North 15.0 mph 29.9 mph 0.12 in Rain Rain
4:56 PM 41.0 °F 30.7 °F 37.9 °F 89% 29.38 in 4.0 mi NNW 25.3 mph 47.2 mph 0.22 in Rain Rain
5:39 PM 41.0 °F 30.5 °F 37.4 °F 87% 29.31 in 2.5 mi NNW 26.5 mph 43.7 mph 0.15 in Rain Heavy Rain
5:56 PM 39.9 °F 28.4 °F 37.0 °F 89% 29.31 in 4.0 mi North 29.9 mph 47.2 mph 0.21 in Rain Heavy Rain
6:56 PM 39.9 °F 29.7 °F 37.0 °F 89% 29.29 in 5.0 mi North 23.0 mph 40.3 mph 0.26 in Rain Rain
8:36 PM 41.0 °F 31.1 °F 37.4 °F 87% 29.13 in 5.0 mi NNW 23.0 mph 43.7 mph 0.09 in Rain Rain
8:56 PM 41.0 °F 32.5 °F 39.0 °F 93% 29.13 in 4.0 mi North 17.3 mph 40.3 mph 0.13 in Rain Light Rain
9:56 PM 44.1 °F 37.1 °F 41.0 °F 89% 29.07 in 4.0 mi North 15.0 mph 33.4 mph 0.14 in Rain Rain
10:56 PM 46.0 °F 38.0 °F 43.0 °F 89% 29.02 in 6.0 mi North 21.9 mph 38.0 mph 0.09 in Rain Light Rain
11:56 PM 46.9 °F - 44.1 °F 90% 28.98 in 3.0 mi North 13.8 mph 33.4 mph 0.09 in Rain Rain